Hourly Data Report for October 12, 2014

All times are specified in Local Standard Time (LST). Add 1 hour to adjust for Daylight Saving Time where and when it is observed.

CAPE DORSET A
NUNAVUT

64°13'49.000" N
76°31'30.000" W
48.20 m
2400637
71366
YTE

Download Data

Hourly Data (October 2014)
Hourly Data Report for October 12, 2014
Temp Definition
°C
Dew Point Temp Definition
°C
Rel Hum Definition
%
Wind Dir Definition
10's deg

Wind Spd Definition
km/h
Visibility Definition
km
Stn Press Definition
kPa
Hmdx Definition


Wind Chill Definition


Weather Definition


TIME
00:00 Legend Double Dagger -2.0 -2.6 96 20 18 2.0 98.53   -7 Snow
01:00 Legend Double Dagger -2.1 -2.8 95 19 21 2.4 98.54   -8 Snow
02:00 Legend Double Dagger -2.0 -2.7 95 18 13 3.6 98.57   -6 Snow
03:00 Legend Double Dagger -1.9 -2.7 94 19 18 4.8 98.58   -7 Snow
04:00 Legend Double Dagger -1.8 -2.6 94 17 13 6.4 98.61   -6 Snow
05:00 Legend Double Dagger -1.6 -2.3 95 18 13 2.4 98.64   -6 Snow
06:00 Legend Double Dagger -1.6 -2.4 94 16 11 2.8 98.66   -5 Snow
07:00 Legend Double Dagger -1.6 -2.6 93 16 11 11.3 98.70   -5 Snow
08:00 Legend Double Dagger -1.6 -2.3 95 14 13 4.8 98.74   -6 Snow
09:00 Legend Double Dagger -1.7 -2.1 97 12 9 4.8 98.78   -5 Snow
10:00 Legend Double Dagger -1.7 -2.1 97 9 11 3.2 98.80   -6 Snow
11:00 Legend Double Dagger -1.4 LegendMM LegendMM 8 15 4.0 98.82   -6 Snow
12:00 Legend Double Dagger -1.5 LegendMM LegendMM 5 15 2.0 98.86   -6 Snow
13:00 Legend Double Dagger -1.1 LegendMM LegendMM 6 13 2.0 98.90   -5 Snow
14:00 Legend Double Dagger -1.1 -1.9 94 13 9 16.1 98.95   -4 Snow
15:00 Legend Double Dagger -1.7 -2.1 97 7 5 16.1 99.00   -4 LegendNANA
16:00 Legend Double Dagger -1.2 LegendMM LegendMM 4 8 2.8 99.04   -4 Snow
17:00 Legend Double Dagger -2.0 LegendMM LegendMM 1 13 16.1 99.13   -6 LegendNANA
18:00 Legend Double Dagger -3.7 -4.1 97 3 13 16.1 99.18   -9 LegendNANA
19:00 Legend Double Dagger -4.3 -4.9 95   0 16.1 99.24     LegendNANA
20:00 Legend Double Dagger -5.1 -5.4 98 25 8 16.1 99.29   -9 LegendNANA
21:00 Legend Double Dagger -4.6 -5.6 93   0 16.1 99.34     LegendNANA
22:00 Legend Double Dagger -3.4 -3.4 100 26 4 16.1 99.36   -5 LegendNANA
23:00 Legend Double Dagger -2.7 -3.1 97 27 4 16.1 99.40   -4 LegendNANA

Notes on Data Quality.

Legend

  • E = Estimated
  • M = Missing
  • NA = Not Available
  • ‡ = Partner data that is not subject to review by the National Climate Archives
Date modified: